This is the latest recevied weather packets stored in our database for station/object KN4PLO. If no packets are shown the sender has not sent any weather packets the latest 1 day(s).
| Time | Temp. | Humidity | Pressure | Rain* | Wind** | Luminosity | Snow |
|---|---|---|---|---|---|---|---|
| 1778038072 | 20° C | 100% | - | 0 mm | 2.68 m/s, 200° | - | - |
| 1778038043 | 20° C | 100% | - | 0 mm | 1.79 m/s, 196° | - | - |
| 1778037772 | 20° C | 100% | - | 0 mm | 3.13 m/s, 190° | - | - |
| 1778037472 | 20° C | 100% | - | 0 mm | 1.79 m/s, 195° | - | - |
| 1778037172 | 20° C | 100% | - | 0 mm | 0.89 m/s, 213° | - | - |
| 1778036872 | 20° C | 100% | - | 0 mm | 1.34 m/s, 233° | - | - |
| 1778036844 | 20° C | 100% | - | 0 mm | 2.68 m/s, 218° | - | - |
| 1778036572 | 20° C | 100% | - | 0 mm | 1.79 m/s, 182° | - | - |
| 1778036272 | 20° C | 100% | - | 0 mm | 1.34 m/s, 211° | - | - |
| 1778036245 | 20° C | 100% | - | 0 mm | 1.79 m/s, 237° | - | - |
| 1778035972 | 20° C | 100% | - | 0 mm | 2.68 m/s, 200° | - | - |
| 1778035672 | 20° C | 100% | - | 0 mm | 2.24 m/s, 167° | - | - |
| 1778035643 | 20° C | 100% | - | 0 mm | 3.58 m/s, 184° | - | - |
| 1778035372 | 20.56° C | 100% | - | 0 mm | 4.47 m/s, 169° | - | - |
| 1778035072 | 20.56° C | 100% | - | 0 mm | 0.89 m/s, 168° | - | - |
| 1778035044 | 20.56° C | 100% | - | 0 mm | 0.45 m/s, 142° | - | - |
| 1778034772 | 20.56° C | 100% | - | 0 mm | 3.13 m/s, 190° | - | - |
| 1778034472 | 20.56° C | 100% | - | 0 mm | 0.89 m/s, 219° | - | - |
| 1778034443 | 20.56° C | 100% | - | 0 mm | 2.68 m/s, 198° | - | - |
| 1778034172 | 20.56° C | 100% | - | 0 mm | 3.58 m/s, 215° | - | - |
| 1778033872 | 20.56° C | 100% | - | 0 mm | 2.24 m/s, 215° | - | - |
| 1778033843 | 20.56° C | 100% | - | 0 mm | 0.89 m/s, 159° | - | - |
| 1778033572 | 20.56° C | 100% | - | 0 mm | 2.68 m/s, 211° | - | - |
| 1778033272 | 20.56° C | 100% | - | 0 mm | 1.34 m/s, 221° | - | - |
| 1778033243 | 20.56° C | 100% | - | 0 mm | 2.24 m/s, 206° | - | - |
* Rain latest hour (hover to see other rain measurements)
** Current wind speed in m/s (hover to see current wind gust speed)